User: anonymous   Login
Location: Unspecified
(0.0000°N, 0.0000°E)
Time: 18:59:57
(UTC+00:00)
Language:

UWE-1 - Orbit

View from above orbital plane
View from above orbital plane
View from above satellite
View from above satellite

Ground track
Ground track

The orbit data is extracted from the following two-line orbital elements,

1 28892U 05043C   17084.92873538 +.00000201 +00000-0 +47638-4 0  9991
2 28892 097.8595 249.5952 0017343 050.4444 309.8288 14.63304153608168
Epoch (UTC): 25 March 2017 22:17:22
Eccentricity: 0.0017343
inclination: 97.8595°
perigee height: 670 km
apogee height: 695 km
right ascension of ascending node: 249.5952°
argument of perigee: 50.4444°
revolutions per day: 14.63304153
mean anomaly at epoch: 309.8288°
orbit number at epoch: 60816

The dashed part of the orbit path shows where the satellite is in the earth's shadow,  

DLR